Location: Diebersbach
(48.5163°N, 8.0558°E)
Time: 23:55:54
(UTC+00:00)

FENGYUN 1C DEB - Pass Details

Date: 31 January 2022
Orbit: 690 x 984 km, 98.6° (Epoch: 23 May)

Event Time Altitude Azimuth Distance (km) Brightness Sun altitude
Rises 18:32:24 0° 195° (SSW) 3,641 ? -21.2°
Reaches altitude 10° 18:35:09 10° 206° (SSW) 2,719 ? -21.7°
Maximum altitude 18:40:32 31° 267° (W) 1,653 ? -22.6°
Drops below altitude 10° 18:45:58 10° 328° (NNW) 2,738 ? -23.5°
Sets 18:48:45 0° 339° (NNW) 3,671 ? -23.9°
